STARLINK-34835, 65336

Orbit data source: Space-Track

STARLINK-34835, 65336 is a payload satellite owned by SpaceX/Seattle (US) in LEO that was launched on Wed, 27 Aug 2025 UTC via an FALCON 9 launch vehicle from the Air Force Eastern Test Range (AFETR). Payload-class satellites include a variety of spacecraft equipped with specific instruments for various scientific and technological missions. These include communications satellites like Starlink; space stations such as the ISS; scientific satellites like the Hubble; Earth observation satellites from companies like Planet Labs, Umbra, and HawkEye 360; GPS; miniature CubeSats for education and research; and military/defense satellites.

Loading next visibility...
Identifier
65336, 2025-189P
Orbit
LEO
Country
Flag of USUS
Related business
Manufacturer
SpaceX/Seattle
Mission
Operational Commercial Communications
Bus & Motor
STARLINK V2MO, Unknown motor
Mass
575 kg wet, ~530 kg dry
Launch date (UTC)
2025-08-27 (10 months ago)
Launch vehicle
FALCON 9
Launch site
Air Force Eastern Test Range (AFETR)
Object type
Payload
Rocket body
Debris
Shape & HBR
Box + 2 Pan, 17.7 m
Radar Cross Section
36.964 m², Large (>1 m²)

Expand to show TLE details & history
Last TLE update: 1 day ago

TLE from 1 day ago
0 STARLINK-34835
1 65336U 25189P   26170.52589865  .00016300  00000-0  56089-3 0  9993
2 65336  53.1597  94.0605 0001279  86.2253 273.8894 15.30220329 46697
Epoch: 2026-06-19T12:37Z
TLE epoch observation values (Epoch: 2026-06-19T12:37:17.643Z)
Latitude
-0.00001°
Longitude
-3.01664°
Altitude
475.995 km
Speed
7.629 km/s
True Right ascension
06h 16m 14s
True Declination
0° 00' 00"
Sunlit
Object was in daylight at epoch
Visualization orbit readout
Latitude
Unknown
Longitude
Unknown
Altitude
Unknown
Speed
Unknown
Apparent Right ascension
Unknown
Apparent Declination
Unknown
Sunlit
N/A
Visualization observer readout
Local Sidereal Time
07:14:04
Azimuth
Unknown
Elevation
Unknown
Doppler factor
Unknown
Orbital elements
Apogee altitude
476.287 km
Perigee altitude
474.534 km
Semi-major axis
6,853.548 km
Eccentricity
0.00013
Inclination
53.1597°
RAAN
94.0605°
Arg. of periapsis
86.2253°
True anomaly
273.87478°
Mean anomaly
273.8894°
Eccentric anomaly
273.88209°
Mean motion
3.82534 °/min
Orbital period
94.11 mins
BSTAR
0.00056089
Loading maneuver chart data...
Computing Atmospheric mass density...
Loading historical data...
Loading historical data...
Loading historical data...
Loading historical data...
Loading historical data...
Loading historical data...
Loading historical data...

Documentation

Showing up to 5 results
|